DELTA 1 R/B(1), 10144

Orbit data source: Space-Track

DELTA 1 R/B(1), 10144 is space debris in LEO originally from a launch on Thu, 14 Jul 1977 UTC launched from the Air Force Eastern Test Range (AFETR). Debris objects in space refer to the collection of defunct objects orbiting the Earth. Examples of debris include non-operational satellites, rocket bodies, and fragments generated from explosions, collisions, or faulty payload assembly.

Loading next visibility...
Identifier
10144, 1977-065B
Orbit
LEO
Country
Flag of USUS
Related business
Manufacturer
MDAC-HB
Mission
Spacecraft
Bus & Motor
DELTA/TR-201, Unknown motor
Mass
845 kg wet, 845 kg dry
Launch date (UTC)
1977-07-14 (48 years ago)
Launch vehicle
Unknown
Launch site
Air Force Eastern Test Range (AFETR)
Object type
Payload
Rocket body
Debris
Shape & HBR
Unknown
Radar Cross Section
Large (>1 m²)

Expand to show TLE details & history
Last TLE update: 6 hours ago

TLE from 6 hours ago
0 DELTA 1 R/B(1)
1 10144U 77065B   25349.93713963  .00000634  00000-0  15603-3 0  9990
2 10144  29.0635 183.5338 0841430 257.7207  92.7978 13.25742598338561
Epoch: 2025-12-15T22:29Z
TLE epoch observation values (Epoch: 2025-12-15T22:29:28.864Z)
Latitude
0.00001°
Longitude
121.335°
Altitude
1,244.946 km
Speed
7.194 km/s
True Right ascension
12h 14m 08s
True Declination
0° 00' 00"
Sunlit
Object was in daylight at epoch
Visualization orbit readout
Latitude
Unknown
Longitude
Unknown
Altitude
Unknown
Speed
Unknown
Apparent Right ascension
Unknown
Apparent Declination
Unknown
Sunlit
N/A
Visualization observer readout
Local Sidereal Time
02:53:18
Azimuth
Unknown
Elevation
Unknown
Doppler factor
Unknown
Orbital elements
Apogee altitude
1,801.528 km
Perigee altitude
531.84 km
Semi-major axis
7,544.821 km
Eccentricity
0.08414
Inclination
29.0635°
RAAN
183.5338°
Arg. of periapsis
257.7207°
True anomaly
102.33499°
Mean anomaly
92.7978°
Eccentric anomaly
97.57675°
Mean motion
3.31184 °/min
Orbital period
108.7 mins
BSTAR
0.00015603
Loading maneuver chart data...
Computing Atmospheric mass density...
Loading historical data...
Loading historical data...
Loading historical data...
Loading historical data...
Loading historical data...
Loading historical data...
Loading historical data...

Documentation

Showing up to 5 results
|